User: anonymous   Login
Location: Unspecified
(48.8656°N, 0.0000°E)
Time: 01:24:49
(UTC+00:00)
Language:

Vanguard 2 Rocket - Orbit

View from above orbital plane
View from above orbital plane
View from above satellite
View from above satellite

Ground track
Ground track

The orbit data is extracted from the following two-line orbital elements,

1    12U 59001B   19168.43411296  .00000117  00000-0  55743-4 0  9990
2    12  32.9049 191.5617 1666119 311.6396  35.2763 11.44264412480615
Epoch (UTC): 17 June 2019 10:25:07
Eccentricity: 0.1666119
inclination: 32.9049°
perigee height: 554 km
apogee height: 3326 km
right ascension of ascending node: 191.5617°
argument of perigee: 311.6396°
revolutions per day: 11.44264412
mean anomaly at epoch: 35.2763°
orbit number at epoch: 48061

The dashed part of the orbit path shows where the satellite is in the earth's shadow,  

DLR